TimeMST,TemperatureF,Dew PointF,Humidity,Sea Level PressureIn,VisibilityMPH,Wind Direction,Wind SpeedMPH,Gust SpeedMPH,PrecipitationIn,Events,Conditions,WindDirDegrees,DateUTC
12:15 AM,19.0,7.7,61,30.13,10.0,WNW,5.8,-,N/A,,Clear,290,2014-01-09 07:15:00
12:35 AM,19.0,7.7,61,30.12,10.0,WNW,5.8,-,N/A,,Clear,290,2014-01-09 07:35:00
12:55 AM,17.1,7.0,65,30.12,10.0,NW,5.8,-,N/A,,Clear,310,2014-01-09 07:55:00
1:15 AM,18.0,8.1,65,30.12,10.0,NW,4.6,-,N/A,,Clear,310,2014-01-09 08:15:00
1:35 AM,16.7,7.9,68,30.12,10.0,NW,6.9,-,N/A,,Clear,320,2014-01-09 08:35:00
1:55 AM,14.0,5.5,69,30.12,10.0,North,4.6,-,N/A,,Clear,350,2014-01-09 08:55:00
2:15 AM,12.6,4.5,70,30.12,10.0,Calm,Calm,-,N/A,,Clear,0,2014-01-09 09:15:00
2:35 AM,10.0,3.2,74,30.12,10.0,Calm,Calm,-,N/A,,Clear,0,2014-01-09 09:35:00
2:55 AM,11.8,4.3,72,30.12,10.0,West,4.6,-,N/A,,Clear,280,2014-01-09 09:55:00
3:15 AM,13.5,5.5,71,30.11,10.0,Calm,Calm,-,N/A,,Clear,0,2014-01-09 10:15:00
3:35 AM,11.3,5.5,78,30.12,10.0,NW,6.9,-,N/A,,Clear,310,2014-01-09 10:35:00
3:55 AM,14.4,7.2,73,30.12,10.0,WNW,5.8,-,N/A,,Clear,300,2014-01-09 10:55:00
4:15 AM,12.2,5.5,75,30.12,10.0,West,6.9,-,N/A,,Clear,280,2014-01-09 11:15:00
4:35 AM,13.3,6.6,75,30.11,10.0,NW,5.8,-,N/A,,Clear,320,2014-01-09 11:35:00
4:55 AM,12.0,5.9,76,30.10,10.0,Calm,Calm,-,N/A,,Clear,0,2014-01-09 11:55:00
5:15 AM,10.6,5.7,81,30.10,10.0,NW,9.2,-,N/A,,Clear,320,2014-01-09 12:15:00
5:35 AM,12.2,6.4,78,30.10,10.0,NW,9.2,-,N/A,,Clear,310,2014-01-09 12:35:00
5:55 AM,12.0,5.9,76,30.10,10.0,NW,4.6,-,N/A,,Clear,320,2014-01-09 12:55:00
6:15 AM,11.1,5.4,78,30.10,10.0,NW,4.6,-,N/A,,Clear,320,2014-01-09 13:15:00
6:35 AM,10.0,5.2,81,30.11,10.0,NW,6.9,-,N/A,,Clear,320,2014-01-09 13:35:00
6:55 AM,10.9,6.4,82,30.10,10.0,Calm,Calm,-,N/A,,Clear,0,2014-01-09 13:55:00
7:15 AM,10.4,5.0,79,30.10,10.0,North,5.8,-,N/A,,Clear,10,2014-01-09 14:15:00
7:35 AM,9.5,5.0,82,30.11,10.0,WNW,4.6,-,N/A,,Clear,290,2014-01-09 14:35:00
7:55 AM,12.4,7.2,80,30.11,10.0,WNW,4.6,-,N/A,,Clear,300,2014-01-09 14:55:00
8:15 AM,16.5,9.0,72,30.10,10.0,NNW,3.5,-,N/A,,Clear,330,2014-01-09 15:15:00
8:35 AM,17.6,8.2,67,30.12,10.0,Calm,Calm,-,N/A,,Clear,0,2014-01-09 15:35:00
8:55 AM,19.9,9.3,63,30.12,10.0,NNW,3.5,-,N/A,,Clear,340,2014-01-09 15:55:00
9:15 AM,23.2,10.6,59,30.12,10.0,Calm,Calm,-,N/A,,Clear,0,2014-01-09 16:15:00
9:35 AM,25.7,11.3,55,30.12,10.0,NNW,3.5,-,N/A,,Clear,330,2014-01-09 16:35:00
9:55 AM,28.9,12.2,50,30.12,10.0,Calm,Calm,-,N/A,,Clear,0,2014-01-09 16:55:00
10:15 AM,32.0,12.4,44,30.10,10.0,Calm,Calm,-,N/A,,Clear,0,2014-01-09 17:15:00
10:35 AM,32.7,12.4,43,30.10,10.0,North,3.5,-,N/A,,Clear,350,2014-01-09 17:35:00
10:55 AM,36.7,13.1,38,30.08,10.0,ESE,4.6,-,N/A,,Clear,120,2014-01-09 17:55:00
11:15 AM,37.6,12.9,36,30.06,10.0,SE,6.9,-,N/A,,Clear,140,2014-01-09 18:15:00
11:35 AM,39.9,13.3,34,30.04,10.0,SSE,6.9,-,N/A,,Clear,150,2014-01-09 18:35:00
11:55 AM,39.9,12.7,33,30.05,10.0,East,4.6,-,N/A,,Clear,100,2014-01-09 18:55:00
12:15 PM,42.1,12.4,30,30.03,10.0,Calm,Calm,-,N/A,,Clear,0,2014-01-09 19:15:00
12:35 PM,42.1,12.9,31,30.02,10.0,North,4.6,-,N/A,,Clear,350,2014-01-09 19:35:00
12:55 PM,42.8,13.5,30,30.01,10.0,North,5.8,-,N/A,,Clear,350,2014-01-09 19:55:00
1:35 PM,46.9,10.8,23,29.99,10.0,NW,4.6,-,N/A,,Clear,320,2014-01-09 20:35:00
1:55 PM,48.0,8.8,20,29.98,10.0,WNW,8.1,-,N/A,,Clear,300,2014-01-09 20:55:00
2:15 PM,50.0,4.8,16,29.98,10.0,West,10.4,-,N/A,,Clear,270,2014-01-09 21:15:00
2:35 PM,50.5,5.2,16,29.97,10.0,West,10.4,-,N/A,,Clear,270,2014-01-09 21:35:00
2:55 PM,50.2,7.0,17,29.96,10.0,West,10.4,-,N/A,,Clear,270,2014-01-09 21:55:00
3:15 PM,50.7,7.5,17,29.96,10.0,West,13.8,23.0,N/A,,Clear,280,2014-01-09 22:15:00
4:15 PM,49.6,7.9,18,29.97,10.0,West,12.7,20.7,N/A,,Scattered Clouds,280,2014-01-09 23:15:00
4:35 PM,47.7,8.2,20,29.98,10.0,West,10.4,-,N/A,,Scattered Clouds,270,2014-01-09 23:35:00
4:55 PM,45.0,7.5,22,29.98,10.0,West,9.2,16.1,N/A,,Scattered Clouds,280,2014-01-09 23:55:00
5:15 PM,39.7,6.8,26,29.98,10.0,WNW,8.1,-,N/A,,Clear,290,2014-01-10 00:15:00
5:35 PM,37.4,7.0,28,29.98,10.0,WNW,5.8,-,N/A,,Clear,290,2014-01-10 00:35:00
5:55 PM,36.5,7.5,30,29.98,10.0,West,6.9,-,N/A,,Clear,270,2014-01-10 00:55:00
6:15 PM,34.3,7.2,32,29.98,10.0,West,4.6,-,N/A,,Clear,280,2014-01-10 01:15:00
6:35 PM,32.4,7.0,34,29.99,10.0,Calm,Calm,-,N/A,,Clear,0,2014-01-10 01:35:00
6:55 PM,32.0,7.5,36,29.98,10.0,Calm,Calm,-,N/A,,Clear,0,2014-01-10 01:55:00
7:15 PM,27.0,5.9,41,29.98,10.0,Calm,Calm,-,N/A,,Clear,0,2014-01-10 02:15:00
7:35 PM,29.7,7.5,39,29.96,10.0,Calm,Calm,-,N/A,,Clear,0,2014-01-10 02:35:00
7:55 PM,27.9,8.6,44,29.96,10.0,Calm,Calm,-,N/A,,Scattered Clouds,0,2014-01-10 02:55:00
8:15 PM,28.8,7.9,41,29.98,10.0,Calm,Calm,-,N/A,,Mostly Cloudy,0,2014-01-10 03:15:00
8:35 PM,26.1,8.1,47,29.98,10.0,SSW,4.6,-,N/A,,Mostly Cloudy,210,2014-01-10 03:35:00
8:55 PM,22.8,7.3,52,29.98,10.0,North,3.5,-,N/A,,Clear,360,2014-01-10 03:55:00
9:15 PM,23.7,7.3,50,29.99,10.0,WNW,5.8,-,N/A,,Clear,300,2014-01-10 04:15:00
9:35 PM,22.3,7.3,53,29.99,10.0,Calm,Calm,-,N/A,,Clear,0,2014-01-10 04:35:00
9:55 PM,23.0,7.2,51,29.99,10.0,Calm,Calm,-,N/A,,Clear,0,2014-01-10 04:55:00
10:15 PM,19.2,5.0,54,29.99,10.0,Calm,Calm,-,N/A,,Clear,0,2014-01-10 05:15:00
10:35 PM,18.0,5.7,59,29.99,10.0,West,3.5,-,N/A,,Clear,280,2014-01-10 05:35:00
10:55 PM,16.5,6.1,64,30.00,10.0,Calm,Calm,-,N/A,,Clear,0,2014-01-10 05:55:00
11:15 PM,19.6,7.3,59,30.00,10.0,SW,3.5,-,N/A,,Clear,220,2014-01-10 06:15:00
11:35 PM,22.3,9.3,58,29.99,10.0,SSW,8.1,-,N/A,,Clear,210,2014-01-10 06:35:00
11:55 PM,24.8,9.1,51,29.99,10.0,Calm,Calm,-,N/A,,Clear,0,2014-01-10 06:55:00